Location: Barletta
(41.3170°N, 16.2830°E)
Time: 18:03:50
(UTC+02:00)

ISS - Pass Details

Date: 11 May 2021
Orbit: 417 x 422 km, 51.6° (Epoch: 18 June)

Event Time Altitude Azimuth Distance (km) Brightness Sun altitude
Rises 03:35:52 0° 307° (NW) 2,374 0.0 -19.6°
Reaches altitude 10° 03:38:31 10° 329° (NNW) 1,509 -0.7 -19.3°
Maximum altitude 03:40:48 17° 12° (NNE) 1,164 -0.8 -19.0°
Drops below altitude 10° 03:43:06 10° 54° (NE) 1,509 0.3 -18.7°
Sets 03:45:45 0° 76° (ENE) 2,373 1.0 -18.3°
